Regional Weather Roundup
Issued by NWS

Home | Current Version | Previous Version | Text Only | Print | Product List | Glossary Off
Versions: 1 2 3 4 5 6 7 8 9 10 11 12 13 14 15 16 17 18 19 20 21 22 23 24 25 26 27 28 29 30 31 32 33 34 35 36 37 38 39 40 41 42 43 44 45 46 47 48 49 50

000
ASUS43 KLMK 211010
RWRKY
KENTUCKY REGIONAL WEATHER ROUNDUP
NATIONAL WEATHER SERVICE LOUISVILLE KY
500 AM EST TUE FEB 21 2017

NOTE "FAIR" INDICATES FEW OR NO CLOUDS BELOW 12,000 FEET
WITH NO SIGNIFICANT WEATHER AND/OR OBSTRUCTIONS TO VISIBILITY.

KYZ001>023-026-027-061>063-070>075-211100-
WESTERN AND SOUTH CENTRAL KENTUCKY

CITY           SKY/WX    TMP DP  RH WIND       PRES   REMARKS
PADUCAH        CLOUDY    60  46  59 E3        29.92S
HENDERSON      CLOUDY    57  45  62 SE7       29.94F
OWENSBORO      MOCLDY    54  45  71 SE6       29.97F
HOPKINSVILLE   CLOUDY    59  47  64 SE5       29.96R
BOWLING GREEN  MOCLDY    53  45  74 CALM      29.99S
GLASGOW        CLOUDY    60  45  55 SE8       30.00F
$$

KYZ024-025-028>034-038-045-046-053-211100-
NORTH CENTRAL KENTUCKY

CITY           SKY/WX    TMP DP  RH WIND       PRES   REMARKS
LOUISVILLE/SDF CLOUDY    57  41  55 SE6       30.00R
LOUISVILLE/LOU CLOUDY    54  42  64 CALM      30.00S
FORT KNOX      CLOUDY    58  45  62 SE6       29.98R
$$

KYZ035>037-039>044-047>052-055>060-089>105-211100-
NORTHEAST KENTUCKY

CITY           SKY/WX    TMP DP  RH WIND       PRES   REMARKS
LEXINGTON      CLOUDY    57  43  59 S13       30.03F
COVINGTON      CLOUDY    51  41  68 S7        30.01F
FRANKFORT      MOCLDY    54  40  59 S5        30.01S
$$

KYZ054-064>069-076>088-106>120-211100-
SOUTHEAST KENTUCKY

CITY           SKY/WX    TMP DP  RH WIND       PRES   REMARKS
JACKSON        PTCLDY    54  37  52 SW5       30.09R
LONDON         PTCLDY    47  40  76 CALM      30.09R
SOMERSET       CLOUDY    50  41  71 CALM      30.09R
MIDDLESBORO    CLOUDY    41  41  99 CALM      30.13S
MONTICELLO     MOSUNNY   59  45  59 E8        30.08S
$$





USA.gov is the U.S. government's official web portal to all federal, state and local government web resources and services.